User: anonymous   Login
Location: Unspecified
(0.0000°N, 0.0000°E)
Time: 07:51:56
(UTC+00:00)
Language:

Starshine 3 - Orbit

View from above orbital plane
View from above orbital plane
View from above satellite
View from above satellite

Ground track
Ground track

The orbit data is extracted from the following two-line orbital elements,

1 26929U 01043A   03021.14417834  .23075867  62110-5  22771-3 0  9999
2 26929 067.0082 058.0340 0002739 336.9161 023.5083 16.51128562 74338
Epoch (UTC): 21 January 2003 03:27:37
Eccentricity: 0.0002739
inclination: 67.0082°
perigee height: 134 km
apogee height: 138 km
right ascension of ascending node: 58.0340°
argument of perigee: 336.9161°
revolutions per day: 16.51128562
mean anomaly at epoch: 23.5083°
orbit number at epoch: 7433

The dashed part of the orbit path shows where the satellite is in the earth's shadow,  

DLR